Location: Cannifist
(18.2333°N, 63.0167°W)
Time: 16:56:41
(UTC+00:00)

Envisat - Pass Details

Date: 23 June 2021
Orbit: 764 x 766 km, 98.2° (Epoch: 02 August)

Event Time Altitude Azimuth Distance (km) Brightness Sun altitude
Rises 09:01:36 0° 19° (NNE) 3,224 7.0 -8.5°
Reaches altitude 10° 09:03:58 10° 24° (NNE) 2,296 6.3 -8.0°
Maximum altitude 09:08:54 52° 101° (E) 938 3.9 -7.0°
Drops below altitude 10° 09:13:48 10° 177° (S) 2,290 5.2 -5.9°
Sets 09:16:09 0° 182° (S) 3,214 5.9 -5.4°
